Regional Weather Roundup
Issued by NWS

Home | Current Version | Previous Version | Graphics & Text | Print | Product List | Glossary Off
Versions: 1 2 3 4 5 6 7 8 9 10 11 12 13 14 15 16 17 18 19 20 21 22 23 24 25 26 27 28 29 30 31 32 33 34 35 36 37 38 39 40 41 42 43 44 45 46 47 48 49 50

000
ASUS43 KMPX 221601
RWRMN
WEATHER ROUNDUP FOR MINNESOTA
NATIONAL WEATHER SERVICE TWIN CITIES/CHANHASSEN MN
1100 AM CDT SUN APR 22 2018


NOTE: "FAIR" INDICATES FEW OR NO CLOUDS BELOW 12,000 FEET WITH NO
SIGNIFICANT WEATHER AND/OR OBSTRUCTIONS TO VISIBILITY. N/A MEANS
CURRENT SKY AND/OR WEATHER CONDITIONS ARE NOT AVAILABLE.

MNZ060>063-068>070-221700-
   Twin Cities Metro

CITY           SKY/WX    TMP DP  RH WIND       PRES   REMARKS
TWIN CITIES    FAIR      55  32  41 SE3       30.37F
ST PAUL        FAIR      55  32  41 S5        30.38F
BLAINE         SUNNY     57  34  41 SE3       30.36F
LAKEVILLE      FAIR      52  39  62 CALM      30.37S
EDEN PRAIRIE   FAIR      55  32  41 S7        30.36S
SOUTH ST PAUL  FAIR      55  32  41 CALM      30.37S
LAKE ELMO      FAIR      54  32  43 SE3       30.38F
$$
MNZ001>005-007-008-013>017-022>024-027-028-221700-
   Northwest Minnesota

CITY           SKY/WX    TMP DP  RH WIND       PRES   REMARKS
BEMIDJI        FAIR      55  28  36 SW10G17   30.27F
HALLOCK        FAIR      55  37  50 SW22      30.17F
ROSEAU         FAIR      55  37  50 S21       30.18F
WARROAD        FAIR      55  34  44 S16G24    30.19F
THIEF RVR FALL FAIR      52  37  56 S18G25    30.23F
CROOKSTON      FAIR      52  39  62 S18       30.24S
FOSSTON        FAIR      54  34  47 SW18      30.27R
DETROIT LAKES  FAIR      55  32  41 S12G17    30.28F
MOORHEAD       FAIR      52  39  62 S13       30.26F
PARK RAPIDS    FAIR      55  33  43 SW9       30.30S
MAHNOMEN       FAIR      54  35  48 S18       30.25F
$$
MNZ006-009>011-018-025>026-221700-
   North Central Minnesota

CITY           SKY/WX    TMP DP  RH WIND       PRES   REMARKS
BAUDETTE       FAIR      56  30  37 S13G24    30.22F
FLAG ISLAND    FAIR      37  30  75 S15       30.18F
INTL FALLS     FAIR      55  31  39 S8G16     30.26F
WASKISH        CLOUDY    55  36  47 W10       30.25F
BIG FORK       FAIR      54  36  50 S9        30.30S
LONGVILLE      FAIR      54  28  37 SW8       30.32S
GRAND RAPIDS   FAIR      52  29  41 S9        30.34S
CRANE LAKE     FAIR      54  32  43 SW6       30.32F
ORR            FAIR      55  30  38 S9        30.28F
COOK           FAIR      55  34  44 S7        30.31F
WALKER         FAIR      54  29  39 SW13      30.30F
$$
MNZ012-019>021-037-221700-
   Northeast Minnesota

CITY           SKY/WX    TMP DP  RH WIND       PRES   REMARKS
DULUTH         FAIR      53  24  32 S8        30.34S
ELY            FAIR      54  18  24 SW10      30.32F
HIBBING        FAIR      53  29  39 VRB6      30.32F
EVELETH        FAIR      55  28  35 S10       30.33F
DULUTH HARBOR  FAIR      39  28  65 CALM      30.37F
TWO HARBORS    FAIR      55  32  41 S5        30.34S
SILVER BAY     FAIR      54  23  30 S7        30.33F
GRAND MARAIS     N/A     41  29  62 NE6       30.38S
G MARAIS ARPRT FAIR      54  14  20 S7        30.34S
$$
MNZ029>031-032-039>041-046>048-054>057-064-221700-
   West Central Minnesota

CITY           SKY/WX    TMP DP  RH WIND       PRES   REMARKS
FERGUS FALLS   FAIR      52  37  58 S9        30.28S
WHEATON        SUNNY     52  39  62 S7        30.31S
MORRIS         SUNNY     52  39  62 S8        30.30S
ALEXANDRIA     FAIR      56  34  43 SW9       30.32S
ELBOW LAKE     FAIR      53  38  58 S10       30.31S
WADENA         FAIR      55  34  44 S12       30.30S
GLENWOOD       FAIR      55  36  47 S9        30.32F
APPLETON       SUNNY     52  36  54 S6        30.31F
BENSON         SUNNY     55  37  50 S8        30.33F
ORTONVILLE     SUNNY     52  37  58 S6        30.29F
MADISON        SUNNY     52  43  71 SE8       30.31F
WILLMAR        FAIR      54  39  58 S7        30.36S
$$
MNZ033>034-036-042>043-049>051-058-059-221700-
   Central Minnesota

CITY           SKY/WX    TMP DP  RH WIND       PRES   REMARKS
ST CLOUD       FAIR      54  35  48 S8        30.35S
SAUK CENTRE    FAIR      53  36  51 S8        30.33F
PAYNESVILLE    FAIR      54  37  53 SE6       30.34F
AITKIN         FAIR      54  28  37 S6        30.32F
PINE RIVER     FAIR      52  34  50 SW8       30.34F
BRAINERD       FAIR      56  33  42 S10       30.33F
STAPLES        FAIR      54  30  40 S10       30.31F
LONG PRAIRIE   FAIR      54  34  47 SE7       30.32F
LITTLE FALLS   FAIR      52  25  35 S5        30.34F
LITCHFIELD     FAIR      55  37  50 SE3       30.35S
BUFFALO        FAIR      54  32  44 S3        30.37S
MAPLE LAKE     FAIR      55  38  52 SE3       30.36F
HUTCHINSON     FAIR      52  39  61 SE7       30.37R
$$
MNZ037-044-045-052-053-221700-
   East Central Minnesota

CITY           SKY/WX    TMP DP  RH WIND       PRES   REMARKS
PRINCETON      FAIR      57  30  35 S5        30.36S
MORA           FAIR      52  30  43 S5        30.37F
CAMBRIDGE      FAIR      55  36  47 S5        30.36F
RUSH CITY      FAIR      53  31  43 SW5       30.37F
MOOSE LAKE     FAIR      54  32  43 SW8       30.33F
HINCKLEY       FAIR      54  34  47 S3        30.36F
CLOQUET        FAIR      54  19  26 S6        30.34F
MCGREGOR       FAIR      54  32  43 SW8       30.34F
$$
MNZ071>073-080-081-089-090-097-098-221700-
   Southwest Minnesota

CITY           SKY/WX    TMP DP  RH WIND       PRES   REMARKS
MONTEVIDEO     SUNNY     55  37  50 SW7       30.33S
GRANITE FALLS  SUNNY     51  41  69 SE6       30.35S
CANBY          SUNNY     48  39  70 E6        30.33S
MARSHALL       SUNNY     48  38  68 S6        30.34S
REDWOOD FALLS  SUNNY     50  39  66 SE7       30.34S
OLIVIA         SUNNY     54  41  62 SE6       30.34S
PIPESTONE      SUNNY    N/A N/A N/A S6        30.30S
WINDOM         SUNNY     48  28  46 E5        30.33S
WORTHINGTON    SUNNY     48  38  68 E9        30.32S
JACKSON        SUNNY     41  34  75 NE7       30.33S
TRACY          SUNNY     48  38  68 SE6       30.33S
SLAYTON        SUNNY     43  37  81 SE5       30.33S
$$
MNZ065>067-074>077-082>085-091>093-221700-
   South Central Minnesota

CITY           SKY/WX    TMP DP  RH WIND       PRES   REMARKS
MANKATO        FAIR      52  36  54 SE8       30.36S
NEW ULM        SUNNY     48  34  57 E5        30.35S
ST JAMES       SUNNY     43  36  75 NE6       30.35S
FAIRMONT       CLOUDY    43  34  70 NE6       30.34
GLENCOE        FAIR      54  39  57 E6        30.36R
OWATONNA       FAIR      55  37  50 E8        30.36S
WASECA         FAIR      52  36  54 E7        30.36F
ALBERT LEA     FAIR      48  30  49 E5        30.34F
$$
MNZ078>079-086>088-094>096-221700-
   Southeast Minnesota

CITY           SKY/WX    TMP DP  RH WIND       PRES   REMARKS
ROCHESTER      FAIR      51  35  54 E7        30.37S
RED WING       FAIR      55  28  35 SE6       30.37S
STANTON        FAIR      55  36  48 CALM      30.35F
DODGE CENTER   FAIR      52  37  58 SE6       30.36S
WINONA         FAIR      54  34  47 SE3       30.36S
AUSTIN         FAIR      48  32  53 E6        30.34F
PRESTON        PTSUNNY   50  30  47 E7        30.36S
$$
ABBREVIATIONS USED IN REMARKS
   TC - TEMPERATURES IN CELSIUS
  WCI - WIND CHILL INDEX
   HX - HEAT INDEX
  VSB - VISIBILITY
$$




USA.gov is the U.S. government's official web portal to all federal, state and local government web resources and services.